[[{"header":{"parameterUnit":"m.s-1","parameterCategory":1,"la1":30.2991,"la2":30.254,"lo1":-89.0895,"lo2":-89.0444,"dy":0.0017,"dx":0.0017,"nx":28,"ny":28,"refTime":"2025-05-17T09:00:00:Z","depth":0,"parameterNumber":2,"parameterNumberName":"U-component_of_WINDS"},"data":[0,0,0,0,0,0,0,0,0,0,0,0,0,0,0,0,0,0,0,0,0,0,0,0,0,0,0,0,0,0,0,0,0,0,0,0,0,0,0,0,0,0,0,0,0,0,0,0,0,0,0,0,0,0,0,0,0,0,2.4237,2.4238,0,2.4298,2.4298,2.4299,2.4298,2.4298,2.4297,2.4296,2.4357,2.436,2.4362,0,0,0,0,0,0,0,0,0,0,0,0,0,2.412,2.4122,2.4237,2.4238,2.4239,2.4298,2.4298,2.4299,2.4299,2.4298,2.4297,2.4296,2.4357,2.4359,2.4362,0,0,0,0,0,0,0,0,0,0,0,0,0,2.4174,2.4123,2.4237,2.4245,2.4247,2.4297,2.4298,2.4299,2.4299,2.4298,2.4296,2.4295,2.4356,2.4359,2.4363,2.4409,0,0,2.4374,2.4375,0,0,0,0,0,0,0,0,2.4171,2.4179,2.4243,2.4245,2.4247,2.4289,2.4279,2.4336,2.4299,2.4279,2.4296,2.4295,2.4336,2.4341,2.4355,2.4412,2.4414,2.4374,2.4376,2.4378,2.4379,0,0,0,0,0,0,0,2.4168,2.4176,2.4261,2.4244,2.4246,2.4246,2.4252,2.429,2.4313,2.4281,2.4281,2.4288,2.4336,2.4351,2.4356,2.4415,2.4374,2.4377,2.4379,2.4381,2.4511,2.4512,0,0,0,0,0,0,2.4162,2.4173,2.4259,2.4263,2.4205,2.4249,2.4256,2.4277,2.4313,2.4317,2.4289,2.4288,2.4346,2.4352,2.4358,2.4413,2.4378,2.4381,2.4383,2.451,2.4511,2.4513,0,0,0,0,0,0,2.416,2.417,2.4257,2.4218,2.4229,2.4252,2.4275,2.4279,2.4294,2.4319,2.4323,2.43,2.4345,2.4353,2.4396,2.4415,2.4383,2.4386,2.4508,2.451,2.4512,2.4524,0,0,0,0,0,0,2.4156,2.4169,2.4187,2.4218,2.4231,2.4294,2.4277,2.4281,2.43,2.4299,2.4331,2.4335,2.4345,2.439,2.4399,2.442,2.4389,2.4506,2.4509,2.4511,2.4522,2.4526,2.453,0,0,0,0,0,2.4152,2.4188,2.4188,2.4198,2.4254,2.4295,2.4302,2.4313,2.4301,2.4319,2.4336,2.4334,2.4412,2.4395,2.4405,2.4427,2.4505,2.4508,2.4511,2.452,2.4525,2.453,0,0,0,0,0,0,2.4159,2.4193,2.4193,2.424,2.4265,2.4295,2.4318,2.4318,2.4346,2.4344,2.4356,2.4363,2.4405,2.4421,2.4401,2.4472,2.4457,2.4462,2.4461,2.4466,2.447,2.4465,2.4392,0,0,0,0,0,2.4166,2.4196,2.4224,2.4263,2.4275,2.4294,2.4313,2.4319,2.4344,2.4355,2.4374,2.4399,2.4429,2.4448,2.4478,2.4525,2.4531,2.4544,2.4548,2.4551,2.4555,2.458,2.4586,2.4522,2.4522,2.4522,0,0,2.418,2.4203,2.4221,2.4265,2.4285,2.4315,2.4303,2.4336,2.4359,2.436,2.4401,2.4416,2.4444,2.4489,2.4509,2.4502,2.4574,2.4555,2.4557,2.456,2.4583,2.4589,2.4595,2.4524,2.4524,2.4524,0,0,2.4222,2.4243,2.4277,2.4297,2.4327,2.4339,2.4347,2.4377,2.4387,2.4428,2.4429,2.4456,2.4508,2.4528,2.4544,2.4593,2.4592,2.4602,2.4622,2.4646,2.4651,2.4655,2.4671,2.4677,2.4606,2.4606,2.4606,0,2.4237,2.4283,2.4294,2.4327,2.4346,2.4348,2.4382,2.4401,2.4439,2.4451,2.4443,2.4508,2.4527,2.4575,2.4587,2.4601,2.461,2.4598,2.4649,2.4654,2.4658,2.4673,2.468,2.4607,2.4607,2.4607,2.4607,0,2.4298,2.433,2.4354,2.439,2.4412,2.4445,2.4461,2.4482,2.4486,2.4499,2.454,2.4563,2.4597,2.4609,2.4614,2.4658,2.4652,2.4647,2.4632,2.4665,2.4679,2.4685,2.4609,2.4608,2.4608,2.4608,0,0,2.4346,2.4387,2.4396,2.4412,2.4444,2.4469,2.4502,2.4535,2.4551,2.4577,2.4604,2.4648,2.4643,2.4662,2.4669,2.469,2.4725,2.4681,2.4682,2.4687,2.4773,2.4776,2.4783,2.4725,2.4726,2.4727,2.477,0,2.439,2.4449,2.446,2.4511,2.454,2.4542,2.4571,2.4594,2.4606,2.4632,2.4647,2.4677,2.4668,2.4679,2.47,2.4716,2.4742,2.4713,2.4749,2.475,2.474,2.479,2.4794,2.4834,2.4776,2.4777,2.4778,0,2.4449,2.4476,2.453,2.4558,2.457,2.4596,2.4626,2.4651,2.4677,2.4685,2.4706,2.471,2.4744,2.4728,2.4773,2.4754,2.4769,2.4779,2.4781,2.4783,2.4765,2.4793,2.4847,2.4852,2.4787,2.4786,2.4786,0,2.4477,2.4527,2.4565,2.4579,2.4612,2.463,2.4645,2.4669,2.4688,2.4714,2.4726,2.4756,2.4772,2.4794,2.4806,2.4794,2.4851,2.4836,2.4857,2.4857,2.4868,2.4867,2.4924,2.488,2.488,2.488,2.488,0,2.4524,2.4556,2.4577,2.4601,2.4637,2.4649,2.4684,2.4699,2.472,2.4746,2.475,2.4774,2.4789,2.4815,2.4825,2.486,2.4868,2.4874,2.4876,2.4873,2.4872,2.4883,2.488,2.4882,2.4881,2.4881,2.4881,0,2.456,2.4576,2.4617,2.4646,2.4653,2.4679,2.4703,2.4725,2.4738,2.477,2.4778,2.4798,2.4829,2.4843,2.4882,2.4888,2.4928,2.4929,2.4919,2.4919,2.4939,2.4936,2.5003,2.5012,2.4964,2.4965,2.4965,0,2.4589,2.4614,2.4645,2.4662,2.4677,2.4706,2.4724,2.4737,2.4756,2.4787,2.4805,2.4836,2.4861,2.491,2.4927,2.4956,2.4957,2.4978,2.4961,2.4957,2.4955,2.4953,2.4955,2.4981,2.4981,2.4982,2.4982,0,2.4637,2.4643,2.467,2.47,2.4722,2.4746,2.4769,2.4783,2.4799,2.482,2.4852,2.4871,2.491,2.494,2.497,2.4984,2.4985,2.4987,2.4993,2.499,2.4983,2.4985,2.4926,2.4986,2.4985,2.4985,2.4985,2.4985,2.4669,2.4691,2.4716,2.4745,2.4764,2.4786,2.4808,2.4823,2.4849,2.4882,2.4888,2.4921,2.4945,2.4985,2.5001,2.5026,2.5021,2.503,2.5032,2.5034,2.5034,2.498,2.5032,2.5032,2.5032,2.5031,2.5031,0,2.4717,2.4733,2.476,2.4792,2.4815,2.4815,2.484,2.4859,2.4888,2.4911,2.4935,2.497,2.4999,2.5019,2.5048,2.5065,2.5066,2.5072,2.507,2.5073,2.5038,2.5029,2.507,2.507,2.507,2.507,2.507,2.507,2.4744,2.478,2.4789,2.4835,2.485,2.4883,2.4897,2.4916,2.4934,2.4973,2.4997,2.501,2.5031,2.5062,2.5088,2.5093,2.5103,2.5109,2.5113,2.508,2.5076,2.5072,2.5063,2.5111,2.5111,2.5146,2.5147,2.5147]},{"header":{"parameterUnit":"m.s-1","parameterCategory":1,"la1":30.2991,"la2":30.254,"lo1":-89.0895,"lo2":-89.0444,"dy":0.0017,"dx":0.0017,"nx":28,"ny":28,"refTime":"2025-05-17T09:00:00:Z","depth":0,"parameterNumber":3,"parameterNumberName":"V-component_of_WINDS"},"data":[0,0,0,0,0,0,0,0,0,0,0,0,0,0,0,0,0,0,0,0,0,0,0,0,0,0,0,0,0,0,0,0,0,0,0,0,0,0,0,0,0,0,0,0,0,0,0,0,0,0,0,0,0,0,0,0,0,0,4.2077,4.2078,0,4.2126,4.2126,4.2127,4.2096,4.2094,4.2093,4.2092,4.2137,4.214,4.2142,0,0,0,0,0,0,0,0,0,0,0,0,0,4.1952,4.1955,4.2077,4.2078,4.2078,4.2126,4.2126,4.2127,4.2096,4.2094,4.2093,4.2091,4.2136,4.2139,4.2142,0,0,0,0,0,0,0,0,0,0,0,0,0,4.2004,4.1956,4.2077,4.2069,4.2068,4.2125,4.2126,4.2127,4.2096,4.2094,4.2092,4.209,4.2135,4.2139,4.2143,4.2209,0,0,4.2154,4.2156,0,0,0,0,0,0,0,0,4.2001,4.2009,4.2069,4.2069,4.2069,4.2103,4.2099,4.2154,4.2097,4.2086,4.2092,4.2089,4.2127,4.2131,4.2145,4.2211,4.2213,4.2155,4.2157,4.2159,4.216,0,0,0,0,0,0,0,4.1998,4.2006,4.2096,4.207,4.207,4.2061,4.2066,4.2109,4.2118,4.2086,4.2084,4.2091,4.2127,4.2141,4.2146,4.2214,4.2155,4.2158,4.216,4.2162,4.2335,4.2337,0,0,0,0,0,0,4.1995,4.2004,4.2095,4.2098,4.2029,4.2065,4.207,4.2094,4.2117,4.2119,4.2093,4.2089,4.2136,4.2141,4.2147,4.2226,4.2159,4.2162,4.2164,4.2333,4.2336,4.2338,0,0,0,0,0,0,4.1993,4.2004,4.2093,4.205,4.2061,4.2069,4.2096,4.2096,4.2111,4.2122,4.2123,4.2107,4.2135,4.2142,4.2194,4.2227,4.2164,4.2167,4.233,4.2334,4.2337,4.2384,0,0,0,0,0,0,4.199,4.2003,4.203,4.2051,4.2063,4.214,4.2098,4.2099,4.2118,4.2114,4.2135,4.2137,4.2133,4.2188,4.2198,4.2231,4.217,4.2327,4.2332,4.2336,4.2379,4.2388,4.2396,0,0,0,0,0,4.1985,4.204,4.2031,4.2043,4.2097,4.2142,4.2149,4.2145,4.2121,4.2147,4.2154,4.2136,4.2222,4.2194,4.2204,4.2239,4.2325,4.2331,4.2336,4.2375,4.2386,4.2396,0,0,0,0,0,0,4.2022,4.2043,4.2033,4.2097,4.2118,4.2137,4.217,4.2157,4.2185,4.218,4.2173,4.2178,4.2232,4.2241,4.2209,4.2304,4.2269,4.2277,4.2296,4.2307,4.2315,4.2311,4.2174,0,0,0,0,0,4.2037,4.2074,4.209,4.2145,4.2156,4.2161,4.2181,4.2176,4.2197,4.2205,4.2216,4.2235,4.2266,4.2287,4.2317,4.238,4.2383,4.2409,4.2418,4.2424,4.2431,4.2464,4.2475,4.2355,4.2355,4.2355,0,0,4.207,4.2086,4.2109,4.2152,4.2168,4.2204,4.2169,4.2209,4.2235,4.2211,4.2261,4.2269,4.229,4.2348,4.2374,4.2357,4.2465,4.2431,4.2437,4.2439,4.247,4.2481,4.2492,4.2359,4.2358,4.2358,0,0,4.2147,4.2164,4.2211,4.2227,4.2252,4.2255,4.2266,4.2286,4.2291,4.2342,4.2324,4.2354,4.2409,4.2424,4.2439,4.2521,4.2506,4.2531,4.2575,4.2607,4.2616,4.2625,4.2653,4.2663,4.2537,4.2538,4.2538,0,4.2184,4.2239,4.2236,4.2278,4.2296,4.2277,4.2324,4.2339,4.2372,4.2384,4.2365,4.2433,4.2445,4.2506,4.2526,4.2539,4.2551,4.2528,4.2616,4.2624,4.2632,4.2658,4.2669,4.254,4.254,4.254,4.254,0,4.2282,4.2321,4.2356,4.2389,4.2411,4.2455,4.2457,4.248,4.2473,4.2478,4.2528,4.2543,4.2574,4.2588,4.2582,4.2648,4.2636,4.2617,4.2582,4.2646,4.2671,4.2681,4.2545,4.2544,4.2543,4.2542,0,0,4.2384,4.2415,4.2428,4.2442,4.2467,4.2496,4.2538,4.257,4.2589,4.2612,4.2646,4.2692,4.2674,4.2691,4.2686,4.2714,4.2777,4.2691,4.2691,4.2705,4.2849,4.2863,4.2875,4.2767,4.2769,4.277,4.2846,0,4.2462,4.2538,4.2535,4.2604,4.2639,4.2621,4.2657,4.2676,4.2681,4.2709,4.2714,4.2747,4.2721,4.273,4.2758,4.2763,4.2805,4.2758,4.2796,4.2798,4.2791,4.2888,4.2904,4.2975,4.2856,4.2858,4.2859,0,4.2564,4.2591,4.2664,4.2683,4.2698,4.2731,4.2759,4.2788,4.2807,4.2809,4.2828,4.2818,4.2858,4.2823,4.2878,4.2846,4.2861,4.2866,4.2869,4.2872,4.2832,4.2893,4.2998,4.3008,4.2875,4.2874,4.2872,0,4.2629,4.2684,4.2735,4.2747,4.2772,4.2795,4.2806,4.2824,4.2843,4.2867,4.2879,4.2907,4.2923,4.2944,4.2942,4.2916,4.2997,4.2962,4.2998,4.2998,4.3015,4.3014,4.3123,4.3027,4.3027,4.3026,4.3026,0,4.2717,4.2762,4.2764,4.2795,4.2845,4.2841,4.2889,4.2897,4.2913,4.2944,4.293,4.2958,4.2954,4.2982,4.298,4.3025,4.3032,4.3033,4.3032,4.3034,4.3034,4.3044,4.3038,4.3029,4.3029,4.3028,4.3027,0,4.2798,4.2802,4.2856,4.2874,4.288,4.2915,4.293,4.2958,4.2962,4.3001,4.301,4.3015,4.3048,4.3047,4.3084,4.3083,4.3138,4.3131,4.3131,4.313,4.3166,4.3162,4.3284,4.33,4.3194,4.3195,4.3196,0,4.2853,4.2888,4.291,4.293,4.2943,4.2976,4.2995,4.2992,4.3013,4.3037,4.3062,4.3094,4.3119,4.3171,4.3177,4.3205,4.3199,4.324,4.3203,4.3203,4.3198,4.3196,4.3198,4.3247,4.3248,4.3249,4.3249,0,4.295,4.295,4.298,4.301,4.3034,4.3057,4.3079,4.3096,4.3095,4.3118,4.3152,4.3172,4.3209,4.324,4.3267,4.3276,4.3262,4.3261,4.3271,4.3273,4.3271,4.3272,4.315,4.3258,4.3257,4.3257,4.3256,4.3256,4.3019,4.3049,4.3069,4.3102,4.3118,4.3138,4.3165,4.3173,4.3201,4.3233,4.3229,4.3266,4.3283,4.3318,4.3329,4.3357,4.3342,4.3357,4.336,4.3364,4.3367,4.3268,4.3362,4.3362,4.3362,4.3361,4.3361,0,4.3114,4.3127,4.3157,4.3188,4.3213,4.32,4.3222,4.3244,4.3278,4.3296,4.3321,4.3359,4.3388,4.3397,4.3425,4.3446,4.344,4.3453,4.3451,4.3453,4.3379,4.3368,4.3457,4.3457,4.3457,4.3457,4.3457,4.3457,4.3167,4.3215,4.3218,4.3273,4.3284,4.3322,4.3336,4.3354,4.3368,4.3412,4.3437,4.3442,4.3456,4.3485,4.3511,4.3512,4.3523,4.3538,4.3537,4.3468,4.3458,4.3449,4.3438,4.3541,4.3541,4.3609,4.3609,4.361]}]]